Location: *
(14.5833°N, 121.0000°E)
Time: 10:17:17
(UTC+00:00)

Daily predictions for brighter satellites

Satellite Brightness Start Highest point End
(mag) Time Altitude Azimuth Time Altitude Azimuth Time Altitude Azimuth
H-2A R/B 2.7 12:13:29 51° SW 12:14:12 55° W 12:19:24 10° NNW
Atlas Centaur 2 2.9 12:09:53 10° WNW 12:13:34 40° W 12:13:34 40° W
Cosmos 1603 4.3 12:11:55 10° SSW 12:16:15 50° SW 12:16:15 50° SW
DELTA 2 R/B (1) 4.4 12:12:47 10° NW 12:16:39 45° NNW 12:16:39 45° NNW
ATLAS 5 CENTAUR R/B 3.8 13:13:35 10° W 13:55:17 17° E 14:09:20 10° E
Cosmos 2333 Rocket 4.4 19:16:43 10° NNE 19:21:01 22° ENE 19:25:19 10° ESE
CENTAUR R/B 3.8 19:25:25 27° ESE 19:25:41 27° ESE 19:30:24 10° NE
Hubble Space Telescope 3.4 19:44:13 16° NE 19:44:13 16° NE 19:45:56 10° ENE
CZ-2C R/B 4.1 19:38:49 10° NNE 19:40:50 25° NNE 19:40:50 25° NNE
BREEZE-M DEB (TANK) 4.3 19:46:20 64° NNW 19:46:20 64° NNW 19:59:20 10° NE
Cosmos 2297 Rocket 3.1 19:58:50 35° NNW 19:58:50 35° NNW 20:02:14 10° N
Delta 198 4.0 20:00:05 65° NE 20:00:05 65° NE 20:04:20 10° ESE
Meteor 1-19 Rocket 4.1 20:06:08 70° SW 20:06:42 76° W 20:12:26 10° N
ADEOS 4.4 20:03:01 10° N 20:06:15 36° NNW 20:06:15 36° NNW
Meteor 1-31 Rocket 3.3 20:08:50 10° NNE 20:12:41 57° E 20:13:16 51° SE
ATLAS 3B R/B 3.7 20:06:42 10° S 20:13:05 42° ESE 20:19:18 10° NE
USA 238 DEB 4.2 20:14:34 38° NW 20:14:34 38° NW 20:20:14 10° N
USA 238 4.1 20:14:38 38° NW 20:14:38 38° NW 20:20:21 10° N
Cosmos 1125 Rocket 3.3 20:15:29 63° SW 20:16:13 73° WNW 20:21:30 10° N
Cosmos 2227 Rocket 3.0 20:22:43 32° NW 20:22:43 32° NW 20:26:42 10° N
COSMOS 2428 2.6 20:18:09 10° NNW 20:23:50 88° ENE 20:29:30 10° SSE
Cosmos 1634 Rocket 4.0 20:19:07 10° NNW 20:25:04 54° W 20:31:04 10° SSW
Centaur D-1A AC-32 3.3 20:28:42 39° WSW 20:30:24 54° SSW 20:47:11 10° ESE
USA 234 3.5 20:24:45 10° SE 20:31:14 69° NE 20:37:43 10° NNW
Cosmos 2322 4.3 20:32:59 35° WSW 20:32:59 35° WSW 20:37:22 10° S
CZ-4B R/B 3.7 20:32:03 10° N 20:35:52 59° WNW 20:36:29 51° WSW
Cosmos 1544 4.3 20:33:06 10° NNE 20:36:35 43° E 20:40:04 10° SSE
Cosmos 2142 Rocket 4.5 20:30:45 10° NNW 20:36:58 62° W 20:43:07 10° S
STARLINK-1062 4.4 20:35:01 20° SSW 20:37:34 50° SE 20:41:33 10° NE
Cosmos 1743 4.5 20:34:27 10° NNW 20:43:49 - S 20:35:46 20° NNW
Cosmos 1975 2.8 20:35:08 10° N 20:39:08 80° E 20:43:10 10° S
Cosmos 2219 Rocket 2.2 20:36:04 10° NNW 20:41:29 54° WSW 20:46:53 10° S
STARLINK-1053 4.1 20:39:48 20° SSW 20:42:31 58° SE 20:46:35 10° NE
GPS 2-18 Rocket1 4.2 20:41:11 25° NW 20:42:44 36° N 20:46:18 10° ENE
SeaSat 1 2.4 20:38:37 10° SSE 20:43:33 88° ENE 20:48:29 10° NNW
Cosmos 1092 Rocket 4.4 20:38:08 10° S 20:44:24 69° E 20:50:41 10° N
Delta 142 3.9 20:44:49 32° W 20:46:36 50° NNW 20:50:39 10° NE
STARLINK-1061 3.9 20:44:33 18° SSW 20:47:28 68° SE 20:51:33 10° NE
EPKM 3.0 20:49:53 25° NW 20:50:29 27° NNW 20:52:29 10° NE
Cosmos 1980 4.5 20:45:52 10° N 20:51:23 54° ENE 20:56:52 10° SSE
Cosmos 2082 4.3 20:49:36 24° WSW 20:52:03 33° WNW 20:57:08 10° N
STARLINK-1067 3.6 20:49:20 17° SSW 20:52:25 79° SE 20:56:33 10° NE
GPS 2-12 Rocket1 3.8 20:50:21 22° WNW 20:52:46 41° N 20:57:03 10° ENE
STARLINK-1058 3.5 20:54:08 16° SW 20:57:25 89° NW 21:01:32 10° NE
H-2A R/B 2.8 20:53:45 10° N 20:57:32 40° WNW 21:01:13 10° SW
Cosmos 389 Rocket 4.0 21:02:47 19° WNW 21:02:47 19° WNW 21:04:58 10° NW
STARLINK-1043 3.5 20:58:55 14° SW 21:02:23 77° NW 21:06:29 10° NNE
CZ-4B R/B 3.7 20:59:13 10° N 21:03:09 35° WNW 21:07:14 10° SW
DELTA 2 R/B(2) 3.2 21:04:04 41° WNW 21:04:21 48° NW 21:06:33 10° NE
Cosmos 1484 Rocket 3.4 21:01:01 10° NNW 21:04:24 31° WNW 21:07:45 10° SW
STARLINK-1065 3.5 21:00:58 14° SW 21:04:29 73° NW 21:08:36 10° NNE
Cosmos 2333 Rocket 3.0 21:00:21 10° NW 21:05:03 28° WSW 21:09:47 10° SSW
Cosmos 2026 Rocket 4.2 21:01:26 10° S 21:07:39 78° E 21:13:47 10° N
Nadezhda 4 Rocket 4.5 21:02:29 10° SSW 21:08:11 37° W 21:13:57 10° NNW
SWIFT 2.3 21:05:38 18° WSW 21:08:43 89° N 21:12:55 10° ENE
PSLV R/B 2.7 21:07:12 15° W 21:10:40 78° SSW 21:12:50 10° ESE
STARLINK-1063 3.7 21:08:29 11° SW 21:12:18 57° NW 21:16:22 10° NNE
COSMO-SKYMED 1 3.7 21:11:29 10° SSE 21:15:40 49° ENE 21:19:50 10° N
CENTAUR R/B 3.4 21:12:40 13° WSW 21:16:01 22° WNW 21:20:35 10° N
Cosmos 1437 Rocket 4.5 21:12:37 10° SSE 21:16:22 39° E 21:20:10 10° NNE
STARLINK-1064 3.9 21:13:18 10° SW 21:17:18 49° NW 21:21:18 10° NNE
ASC 2 Rocket 4.4 21:16:13 12° WSW 21:19:25 22° SSW 21:22:43 10° SSE
ALOS 2.8 21:15:36 10° N 21:19:53 37° WNW 21:24:11 10° SW
STARLINK-1041 4.1 21:18:19 10° SW 21:22:15 42° NW 21:26:10 10° NNE
Cosmos 1428 Rocket 4.4 21:17:16 10° S 21:23:22 84° W 21:29:28 10° N
Palapa 6 Rocket 3.5 21:19:18 11° WSW 21:23:53 79° NNW 21:29:51 10° ENE
Hubble Space Telescope 1.3 21:20:33 10° NW 21:24:37 56° NNE 21:28:40 10° ESE
STARLINK-1038 4.3 21:23:24 10° WSW 21:27:14 37° NW 21:31:05 10° NNE
H-2A R/B 4.3 21:25:50 10° NNE 21:29:26 40° E 21:33:04 10° S
FENGYUN 3A 4.3 21:25:41 10° NNW 21:30:27 33° WNW 21:35:13 10° SW
Chandra Rocket (1) 4.5 21:21:10 10° W 21:30:28 26° NNW 21:34:22 10° NNE
NOSS 0 Rocket 4.3 21:26:03 10° NW 21:31:44 41° WSW 21:37:27 10° S
STARLINK-1046 4.5 21:28:30 10° WSW 21:32:13 32° NW 21:35:57 10° NNE
Cosmos 2237 Rocket 2.3 21:29:25 10° NNW 21:34:57 56° WSW 21:40:30 10° S
CZ-4B R/B 3.4 21:30:06 10° NNE 21:35:38 86° ESE 21:41:16 10° SSW
